Home > Weather > Mobile > Past weeks

Flag for USA Past Weather in Mobile, Alabama, USA — Yesterday and Last 2 Weeks

Now
77 °F

Clear.


Feels Like: 78 °F
Forecast: 77 / 91 °F
Wind: 3 mph from West

Location: Mobile Downtown Airport

Current Time: Jul 30, 2016 at 6:13:04 AM

Latest Report: Jul 30, 2016 at 4:53 AM


Visibility: 10 mi

Pressure: 30.01 "Hg

Humidity: 96%

Dew Point: 76 °F

Location of MobileLocation

Past Weather in Mobile — Graph

°F

Mobile Temperature Yesterday

Maximum temperature yesterday: 91 °F (at 10:53 AM)
Minimum temperature yesterday: 76 °F (at 10:53 PM)
Average temperature yesterday: 81 °F

High & Low Weather Summary for the Past Weeks

 TemperatureHumidityPressure
High94 °F (Jul 20, 1:53 PM)100% (Jul 15, 8:53 PM)30.26 "Hg (Jul 15, 8:53 PM)
Low74 °F (Jul 15, 11:53 PM)54% (Jul 20, 1:53 PM)29.93 "Hg (Jul 26, 2:53 AM)
Average82 °F83%30.07 "Hg
* Reported Jul 15 4:53 AM — Jul 30 4:53 AM, Mobile, Weather by CustomWeather, © 2016

Note: Actual official high and low records may vary slightly from our data, if they occured in-between our weather recording intervals... More about our weather records

Advertising

Mobile Weather History for the Previous 24 Hours

Scroll right to see more
 ConditionsComfort  
Time TempWeatherWind HumidityBarometerVisibility
4:53 AM
Sat, Jul 30
77 °FClear.3 mph96%30.01 "Hg10 mi
3:53 AM76 °FClear.No wind97%30.00 "Hg10 mi
2:53 AM76 °FClear.No wind100%30.00 "Hg10 mi
1:53 AM76 °FClear.3 mph100%30.02 "Hg7 mi
12:53 AM76 °FClear.No wind100%30.03 "Hg10 mi
11:53 PM
Fri, Jul 29
76 °FClear.No wind100%30.03 "Hg10 mi
10:53 PM76 °FClear.No wind97%30.03 "Hg10 mi
9:53 PM77 °FClear.No wind96%30.03 "Hg10 mi
8:53 PM77 °FClear.No wind94%30.02 "Hg10 mi
7:53 PM79 °FSunny.3 mph88%30.01 "Hg10 mi
6:53 PM83 °FSunny.3 mph74%30.01 "Hg10 mi
5:53 PM78 °FSunny.6 mph84%29.99 "Hg10 mi
4:53 PM81 °FThunderstorms. Sunny.8 mph77%30.01 "Hg10 mi
3:53 PM88 °FSunny.6 mph65%30.01 "Hg10 mi
2:53 PM84 °FThunderstorms. Passing clouds.7 mph80%30.02 "Hg10 mi
2:04 PM79 °FThunderstorms. Cloudy.8 mph82%30.04 "Hg7 mi
1:53 PM77 °FThunderstorms. Partly sunny.12 mph88%30.04 "Hg7 mi
12:53 PM86 °FThunderstorms. Partly sunny.6 mph77%30.06 "Hg10 mi
11:53 AM89 °FPartly sunny.8 mph72%30.06 "Hg10 mi
10:53 AM91 °FPartly sunny.No wind64%30.06 "Hg10 mi
9:53 AM89 °FPartly sunny.3 mph70%30.06 "Hg10 mi
8:53 AM86 °FScattered clouds.5 mph77%30.06 "Hg10 mi
7:53 AM84 °FPassing clouds.No wind83%30.06 "Hg10 mi
6:53 AM78 °FPassing clouds.N/A96%30.05 "Hg10 mi
Weather by CustomWeather, © 2016

See weather overviewHow to use our weather pages